Wind_Speed
41 37 36 32 23 21 24 28 24 26 33 33 37 35 35 34 31 31 30 32 32 32 35 36 35 38 40 41 41 42 42 43 44 42 45 41 41 54
31 26 27 34 34 30 28 29 28 29 35 35 38 38 36 33 31 30 31 34 38 33 38 37 35 37 40 42 42 41 42 43 45 47 48 45 44 45
25 24 28 31 31 30 30 29 28 31 36 40 38 36 35 35 34 32 34 31 31 31 34 36 37 41 44 43 43 42 44 46 49 48 47 46 46 48
30 27 27 28 30 31 32 36 34 37 37 37 38 37 40 36 32 28 26 24 27 30 36 37 39 38 40 40 40 42 43 43 45 45 44 44 45 48
26 26 30 30 31 34 35 34 38 38 37 36 33 29 25 26 25 25 28 27 28 31 30 30 32 34 36 38 38 40 42 43 44 42 44 43 42 43
25 27 28 29 33 34 36 38 38 37 35 29 25 22 19 18 21 23 24 23 24 28 27 27 28 29 30 30 32 34 35 36 36 37 38 40 41 42
28 29 30 33 33 35 35 34 30 23 21 15 11 11 13 16 20 22 24 25 25 29 29 27 33 33 34 33 34 34 36 37 39 38 38 39 41 43
30 32 34 35 34 32 29 20 14 11 9 5 7 9 13 16 17 21 24 27 28 29 34 33 34 36 36 35 35 35 35 37 38 40 37 39 40 42
32 32 28 22 21 17 9 7 6 3 4 6 10 11 13 15 19 21 23 24 26 31 36 38 35 35 35 35 34 32 33 34 35 35 37 40 43 44
27 26 24 20 13 11 8 4 1 2 6 7 7 9 12 15 19 22 25 27 26 28 35 36 36 40 43 38 31 28 30 31 38 38 37 35 33 32
24 21 19 16 14 8 4 1 2 4 5 7 8 11 13 17 20 22 24 28 31 29 28 32 39 45 45 35 30 24 37 40 40 40 40 36 32 32
23 21 17 14 11 3 3 3 2 4 4 7 8 10 13 16 18 20 23 25 28 30 26 35 36 37 32 27 31 44 43 41 40 39 36 32 28 28
25 22 16 10 8 6 6 5 4 5 5 7 9 10 12 14 17 20 22 24 25 25 27 25 29 33 31 41 41 46 42 44 41 38 34 31 31 31
21 17 12 8 9 7 7 6 6 5 6 7 8 11 14 17 19 20 21 21 21 23 25 24 27 29 32 40 44 46 44 42 39 36 31 38 41 37
14 12 10 8 8 8 10 8 7 6 7 8 13 15 17 18 18 19 20 22 22 23 24 24 26 29 29 34 41 46 45 45 34 27 44 42 39 36
13 13 12 10 7 9 9 8 8 10 12 13 15 16 17 19 22 24 26 26 26 24 23 26 27 28 32 34 35 41 40 36 42 42 42 41 37 30
13 11 11 11 10 9 10 11 11 12 13 15 15 17 19 21 24 25 25 26 28 31 32 30 29 30 31 33 37 33 38 41 40 42 39 41 40 36
13 12 11 11 10 11 10 11 12 12 14 15 15 17 20 23 24 25 26 27 29 30 32 32 34 39 42 39 22 31 39 41 45 41 37 38 43 39
10 12 12 11 10 10 10 10 12 12 13 13 16 18 20 21 25 26 27 27 29 30 31 31 34 37 42 50 48 28 41 44 43 44 38 37 41 41
11 11 11 9 9 8 9 9 10 10 10 12 14 16 19 22 24 25 27 29 31 32 34 33 34 34 35 40 48 52 39 36 38 41 42 39 37 31
11 10 8 7 7 7 8 8 8 9 9 11 13 16 18 21 23 26 29 30 32 33 34 35 34 33 37 40 44 50 42 36 32 33 31 30 30 23
8 7 7 6 5 5 6 6 7 7 8 11 13 15 17 21 25 27 29 32 32 32 32 32 34 37 38 39 43 43 45 37 29 17 15 14 13 11
6 4 5 4 3 3 4 5 6 7 9 11 13 15 18 22 24 26 29 30 31 31 31 33 34 35 37 38 38 39 39 37 35 33 24 18 17 20
Wind_Direction
215 205 205 220 223 224 247 262 255 269 273 283 289 296 299 299 298 300 299 299 293 285 279 276 270 277 277 281 281 279 277 275 275 274 274 274 275 272
201 207 233 244 243 243 249 266 268 269 275 286 290 297 300 297 298 293 292 293 279 280 282 274 268 272 279 281 281 277 276 275 272 271 272 274 273 271
210 228 244 242 240 248 257 265 265 272 277 287 290 296 294 296 291 296 278 279 277 274 267 272 278 281 284 287 283 284 283 281 279 277 274 273 272 270
233 250 245 238 245 255 263 268 269 276 281 283 290 289 284 279 276 278 265 263 261 270 275 281 283 283 284 284 285 284 283 281 278 278 279 278 276 274
242 237 242 247 256 258 266 264 273 281 280 276 269 264 259 270 269 269 270 278 283 282 285 287 289 288 285 284 287 290 291 289 287 284 280 280 279 276
232 242 251 252 259 263 267 271 275 274 267 263 262 267 267 269 281 280 285 292 293 294 295 297 296 296 298 300 297 296 294 293 292 289 286 284 282 278
236 246 255 263 266 267 270 269 266 264 266 267 268 267 278 291 299 311 306 307 307 305 301 305 303 305 305 304 304 301 300 297 294 292 290 289 287 286
245 252 259 262 262 262 267 266 253 244 245 257 280 305 312 320 314 317 319 320 320 309 311 312 309 308 306 306 305 304 300 298 297 294 294 290 288 288
246 243 235 236 242 243 224 204 218 236 266 307 310 312 317 317 323 321 323 324 322 321 320 318 318 314 312 312 311 308 302 300 299 301 297 294 290 289
223 224 224 220 204 189 178 173 244 346 329 325 315 329 328 327 326 327 325 320 317 322 323 322 323 319 319 323 322 314 310 308 309 309 310 308 308 309
201 204 199 183 168 159 166 166 26 11 1 354 344 336 328 326 325 323 321 328 330 333 327 324 324 322 323 326 319 315 313 315 314 314 315 314 312 306
176 164 162 164 164 158 73 83 115 53 7 346 342 335 332 327 332 335 336 338 337 335 329 326 324 327 327 324 307 318 319 319 318 317 317 316 316 308
150 147 144 128 111 135 130 110 69 51 10 345 346 348 344 341 342 344 342 340 335 328 329 326 319 319 316 314 313 319 322 322 321 320 315 311 308 310
138 131 117 119 119 120 99 85 77 52 25 10 0 0 356 351 349 345 342 338 334 329 329 325 317 319 316 313 314 319 321 320 319 318 306 307 307 309
117 125 128 122 118 114 96 79 61 52 42 25 20 12 4 356 349 345 344 340 337 333 330 328 324 320 315 312 311 316 318 320 321 310 316 317 313 313
140 133 129 124 102 89 93 88 76 57 39 30 21 14 5 358 354 351 347 342 337 335 335 334 330 326 321 318 315 317 319 306 318 317 316 312 313 309
137 131 121 117 118 107 98 84 62 48 36 29 20 13 6 2 359 353 348 345 342 340 341 340 336 331 327 326 321 320 318 315 317 316 316 313 311 309
127 129 128 120 115 107 89 71 60 43 36 26 19 14 10 6 1 357 351 347 343 342 342 344 342 338 336 331 323 316 322 318 319 318 313 306 310 315
136 133 133 129 116 95 78 64 54 44 38 24 20 14 8 4 0 356 352 348 345 344 344 345 346 345 335 329 329 325 318 321 318 313 308 305 304 317
145 134 130 121 101 92 77 61 55 48 34 22 13 4 1 360 356 352 351 349 346 344 343 347 348 343 336 327 322 331 339 317 315 312 313 313 309 317
136 134 123 116 108 89 75 63 52 38 24 13 3 357 354 352 352 351 350 349 345 344 343 346 345 344 342 338 332 338 351 355 335 315 319 314 321 340
139 140 127 120 105 84 64 51 33 18 11 4 356 348 348 349 352 352 350 348 346 344 341 341 346 349 350 348 342 344 355 17 33 25 0 351 321 310
130 128 116 135 126 76 44 27 9 359 359 354 345 344 348 350 351 351 348 346 344 345 343 345 350 353 354 355 351 355 5 20 32 44 42 47 54 50
Height
1500 1504 1511 1517 1521 1525 1528 1531 1532 1530 1529 1529 1528 1528 1528 1527 1526 1526 1524 1523 1522 1520 1516 1513 1512 1511 1509 1506 1504 1502 1501 1498 1496 1494 1492 1491 1489 1489
1497 1504 1509 1513 1517 1520 1523 1524 1525 1525 1522 1523 1521 1521 1521 1520 1519 1517 1516 1514 1511 1508 1506 1505 1503 1500 1499 1497 1494 1492 1489 1486 1483 1481 1479 1478 1476 1475
1493 1500 1505 1509 1511 1515 1518 1518 1518 1519 1516 1514 1516 1515 1512 1510 1509 1508 1507 1504 1503 1500 1497 1496 1494 1491 1488 1486 1484 1482 1479 1475 1472 1469 1466 1464 1462 1460
1490 1495 1499 1504 1507 1510 1511 1512 1512 1512 1510 1508 1508 1505 1504 1501 1501 1500 1499 1496 1493 1491 1490 1487 1485 1481 1478 1476 1473 1470 1466 1463 1459 1456 1453 1452 1449 1447
1487 1491 1495 1498 1501 1503 1504 1504 1505 1503 1502 1501 1499 1496 1495 1494 1494 1492 1491 1490 1485 1482 1481 1478 1476 1473 1469 1466 1464 1461 1457 1453 1449 1445 1442 1439 1436 1433
1483 1487 1490 1492 1494 1496 1497 1497 1496 1495 1493 1490 1490 1489 1487 1486 1486 1485 1483 1483 1479 1475 1474 1471 1469 1466 1462 1459 1457 1453 1448 1443 1440 1436 1432 1428 1425 1421
1478 1481 1483 1484 1487 1488 1488 1487 1486 1486 1486 1485 1485 1482 1482 1480 1480 1477 1473 1475 1473 1469 1465 1467 1462 1458 1453 1452 1450 1445 1439 1435 1432 1427 1423 1419 1414 1409
1473 1475 1476 1477 1478 1478 1478 1479 1480 1480 1481 1479 1482 1479 1478 1475 1476 1472 1469 1466 1465 1464 1457 1457 1454 1449 1446 1445 1442 1437 1432 1428 1424 1418 1414 1409 1404 1399
1467 1468 1469 1470 1471 1472 1474 1475 1476 1478 1476 1477 1476 1477 1473 1474 1472 1468 1465 1464 1462 1456 1450 1445 1445 1441 1439 1439 1435 1431 1426 1420 1414 1409 1404 1399 1395 1390
1461 1462 1463 1465 1467 1469 1470 1472 1475 1473 1473 1469 1473 1471 1473 1471 1469 1465 1463 1462 1461 1456 1446 1438 1436 1431 1429 1428 1425 1424 1420 1414 1409 1401 1395 1389 1384 1381
1456 1458 1461 1462 1465 1467 1468 1470 1468 1472 1474 1472 1469 1468 1467 1468 1466 1464 1461 1456 1451 1451 1445 1439 1434 1424 1421 1420 1418 1416 1412 1407 1400 1393 1387 1382 1377 1372
1453 1456 1461 1460 1462 1465 1466 1467 1468 1467 1472 1473 1471 1468 1466 1466 1463 1460 1458 1455 1450 1447 1447 1439 1434 1428 1414 1411 1412 1409 1403 1398 1391 1385 1380 1374 1370 1365
1452 1456 1460 1459 1461 1463 1462 1464 1467 1467 1471 1471 1468 1467 1466 1465 1462 1458 1456 1453 1450 1447 1444 1439 1433 1428 1425 1410 1403 1400 1395 1389 1382 1378 1373 1368 1364 1360
1453 1457 1462 1463 1457 1464 1462 1464 1466 1467 1468 1468 1468 1466 1464 1463 1460 1458 1455 1453 1450 1446 1441 1437 1431 1426 1419 1410 1401 1394 1389 1382 1377 1371 1366 1361 1355 1349
1456 1459 1460 1463 1469 1463 1460 1464 1466 1466 1467 1469 1465 1463 1463 1462 1460 1457 1453 1451 1448 1444 1440 1434 1429 1423 1418 1409 1399 1390 1382 1374 1370 1366 1359 1352 1346 1341
1454 1459 1460 1462 1469 1467 1464 1464 1466 1467 1466 1464 1465 1464 1464 1462 1459 1453 1448 1446 1444 1441 1437 1431 1425 1419 1411 1405 1398 1386 1380 1373 1364 1359 1352 1343 1338 1334
1451 1459 1462 1462 1463 1467 1466 1464 1465 1465 1465 1465 1465 1464 1463 1460 1456 1452 1448 1444 1441 1434 1429 1425 1420 1414 1407 1399 1390 1384 1373 1365 1360 1351 1345 1333 1328 1325
1455 1460 1465 1467 1468 1467 1467 1464 1461 1465 1464 1466 1467 1464 1461 1457 1454 1451 1447 1443 1438 1433 1428 1421 1413 1404 1395 1390 1386 1377 1368 1359 1350 1343 1339 1331 1318 1316
1460 1463 1466 1468 1469 1466 1465 1464 1462 1464 1464 1467 1465 1463 1461 1458 1453 1450 1446 1441 1437 1431 1426 1420 1412 1405 1394 1381 1373 1372 1363 1351 1341 1334 1331 1325 1317 1307
1465 1467 1469 1469 1466 1467 1465 1464 1464 1464 1465 1465 1464 1464 1461 1456 1453 1449 1445 1439 1434 1427 1422 1417 1410 1405 1399 1389 1372 1356 1359 1347 1339 1328 1322 1317 1312 1304
1466 1468 1468 1469 1469 1467 1465 1465 1466 1465 1465 1464 1464 1463 1459 1456 1452 1448 1442 1438 1432 1425 1418 1413 1409 1404 1395 1385 1371 1356 1346 1343 1336 1327 1317 1313 1306 1301
1469 1469 1467 1469 1469 1468 1467 1466 1466 1465 1465 1464 1463 1462 1459 1455 1449 1445 1441 1435 1429 1424 1417 1412 1406 1399 1392 1383 1370 1359 1345 1335 1329 1324 1319 1315 1312 1308
1467 1469 1467 1471 1471 1469 1467 1466 1466 1465 1464 1463 1463 1461 1457 1453 1449 1444 1440 1435 1429 1422 1416 1409 1404 1398 1391 1382 1372 1361 1351 1342 1335 1329 1325 1321 1317 1313